2019-038AE (44414 NORAD) Tracking and Keplerian Element Data

This shows tracking and keplerian element data for the satellite.

Feedback or suggestion? Click here.




ElementValue
Catalog44414
Name2019-038AE
Epoch Orbit382
Epoch Day214.89316542
Epoch Year2019
RAAN176.2939
Inclination97.492
Eccentricity0.0024829
Argument of Perigee149.1507
Mean Anonmoly211.1188
Mean Motion15.11825905
Decay Rate2.82E-06
L11 44414U 19038AE 19214.89316542 .00000282 00000-0 20173-4 0 9992
L22 44414 97.4920 176.2939 0024829 149.1507 211.1188 15.11825905 3821

Live tracking and technical data element details for 2019-038AE (NORAD 44414). 2019-038AE can be tracked NOW for your location showing map with azimuth and elevation plus other details from your city location.

Track the satellite on the map from your city or location and see movement details for azimuth, elevation, latitude, longitude, range, height, and movement on the map or in text.







IsCatalogInMostPopularTable: catalog: 44414, numindb: 9
Update: records affected: 1



GetName: 44414 2019-038AE

Hit Count: updated at: Wed, 21 Aug 2019 11:39:08 GMT